Flag for Bosnia-Herzegovina Weather past 2 weeks in Mostar, Bosnia-Herzegovina

Now
63 °F

Passing clouds.


Feels Like: 63 °F
Forecast: 38 / 72 °F
Wind: 12 mph from Northwest

Location: Mostar

Current Time: Sep 23, 2014 at 10:37:01 AM

Latest Report: Sep 23, 2014 at 10:00 AM


Visibility: N/A

Pressure: 29.95 "Hg

Humidity: 45%

Dew point: 41 °F

Location of MostarLocation

Historic Weather in Mostar — Graph

°F

Mostar temperature yesterday

Maximum temperature yesterday: 75 °F (at 11:30 AM)
Minimum temperature yesterday: 57 °F (at 11:00 PM)
Average temperature yesterday: 68 °F

Past Weeks' High & Low Weather Summary

 TemperatureHumidityPressure
High84 °F (Sep 9, 4:00 PM)100% (Sep 9, 7:00 AM)30.18 "Hg (Sep 9, 7:00 AM)
Low52 °F (Sep 16, 6:00 AM)34% (Sep 17, 4:00 PM)29.71 "Hg (Sep 23, 3:00 AM)
Average68 °F74%29.96 "Hg
* Reported Sep 8 9:00 AM — Sep 23 9:30 AM, Mostar, Weather by CustomWeather, © 2014

Note: Actual official high and low records may vary slightly from our data, if they occured in-between our weather recording intervals... More about our weather records

Advertising

Mostar weather history for previous 24 hours

 ConditionsComfort  
Time TempWeatherWind HumidityBarometerVisibility
9:30 AM
Sep 23
61 °FPassing clouds.13 mph48%29.92 "HgN/A
9:00 AM61 °FPassing clouds.18 mph45%29.92 "HgN/A
8:30 AM59 °FPassing clouds.28 mph48%29.86 "HgN/A
8:00 AM59 °FPassing clouds.30 mph48%29.83 "HgN/A
7:30 AM59 °FPassing clouds.17 mph48%29.80 "HgN/A
7:00 AM55 °FPassing clouds.18 mph63%29.80 "HgN/A
6:30 AM55 °FLight rain. Passing clouds.18 mph59%29.80 "HgN/A
6:00 AM52 °FPassing clouds.3 mph82%29.77 "HgN/A
5:30 AM54 °FThundershowers. Passing clouds.6 mph77%29.74 "HgN/A
5:00 AM54 °FPassing clouds.5 mph82%29.71 "HgN/A
4:00 AM55 °FRain. Overcast.5 mph77%29.80 "HgN/A
3:00 AM55 °FLight rain. Partly cloudy.24 mph82%29.71 "HgN/A
2:24 AM55 °FLight rain. Partly cloudy.23 mph82%29.74 "HgN/A
2:00 AM59 °FLight rain. Partly cloudy.7 mph72%29.74 "HgN/A
1:00 AM57 °FRain. Partly cloudy.6 mph88%29.77 "HgN/A
12:00 AM61 °FLight rain. Partly cloudy.5 mph63%29.80 "HgN/A
11:00 PM
Sep 22
57 °FPassing clouds.6 mph88%29.80 "HgN/A
10:00 PM59 °FPassing clouds.3 mph82%29.83 "HgN/A
9:00 PM61 °FPassing clouds.6 mph88%29.83 "HgN/A
8:00 PM63 °FThundershowers. Passing clouds.2 mph83%29.80 "HgN/A
7:00 PM63 °FLight rain. Scattered clouds.10 mph94%29.80 "HgN/A
6:00 PM66 °FThunderstorms. Partly sunny.14 mph78%29.80 "HgN/A
5:00 PM70 °FThundershowers. Partly sunny.1 mph78%29.74 "HgN/A
4:00 PM68 °FScattered clouds.5 mph88%29.77 "HgN/A
3:30 PM68 °FThundershowers. Scattered clouds.3 mph83%29.77 "HgN/A
3:00 PM66 °FThunderstorms. Partly sunny.18 mph88%29.77 "Hg1 mi
2:30 PM72 °FThunderstorms. Partly sunny.6 mph78%29.77 "HgN/A
2:00 PM72 °FLight rain. Partly sunny.7 mph78%29.77 "HgN/A
1:30 PM73 °FScattered clouds.8 mph74%29.80 "HgN/A
1:00 PM72 °FScattered clouds.6 mph83%29.80 "HgN/A
12:30 PM68 °FThundershowers. Partly sunny.18 mph83%29.83 "HgN/A
12:00 PM75 °FScattered clouds.3 mph65%29.80 "HgN/A
11:30 AM75 °FPassing clouds.3 mph65%29.83 "HgN/A
11:00 AM73 °FPassing clouds.3 mph69%29.83 "HgN/A
10:30 AM73 °FPassing clouds.3 mph69%29.83 "HgN/A
10:00 AM70 °FPassing clouds.2 mph78%29.83 "HgN/A
Weather by CustomWeather, © 2014

See weather overviewHow to use our weather pages